Location: Unspecified
(0.0000°N, 0.0000°E)
Time: 09:54:00
(UTC+00:00)

deb r/b Ablestar - Pass Details

Date: 09 March 2026
Orbit: 827 x 964 km, 67.7° (Epoch: 19 April)

Event Time Altitude Azimuth Distance (km) Brightness Sun altitude
Rises 19:28:48 0° 352° (N) 3,442 ? -19.5°
Reaches altitude 10° 19:31:18 10° 358° (N) 2,527 ? -20.2°
Maximum altitude 19:36:57 49° 72° (ENE) 1,146 ? -21.6°
Enters shadow 19:38:39 39° 116° (ESE) 1,344 ? -22.0°
